This is the latest recevied weather packets stored in our database for station/object EA1HTW-13. If no packets are shown the sender has not sent any weather packets the latest 10 day(s).
| Time | Temp. | Humidity | Pressure | Rain* | Wind** | Luminosity | Snow |
|---|---|---|---|---|---|---|---|
| 1777898294 | 17.78° C | 46% | 1009.9 hPa | 0 mm | - | - | - |
| 1777897755 | 18.33° C | 50% | 1009.9 hPa | 0 mm | - | - | - |
| 1777897214 | 17.78° C | 53% | 1010.1 hPa | 0 mm | - | - | - |
| 1777896674 | 17.78° C | 53% | 1010.1 hPa | 0 mm | - | - | - |
| 1777896134 | 17.78° C | 51% | 1010 hPa | 0 mm | - | - | - |
| 1777895595 | 17.78° C | 52% | 1009.9 hPa | 0 mm | - | - | - |
| 1777895054 | 17.78° C | 56% | 1009.8 hPa | 0 mm | - | - | - |
| 1777894514 | 17.78° C | 57% | 1009.9 hPa | 0 mm | - | - | - |
| 1777893975 | 17.78° C | 54% | 1010.1 hPa | 0 mm | - | - | - |
| 1777893435 | 17.78° C | 52% | 1010.1 hPa | 0 mm | - | - | - |
| 1777892895 | 17.78° C | 54% | 1010 hPa | 0 mm | - | - | - |
| 1777892355 | 17.22° C | 59% | 1010.1 hPa | 0 mm | - | - | - |
| 1777891814 | 16.67° C | 61% | 1010 hPa | 0 mm | - | - | - |
| 1777891275 | 16.67° C | 62% | 1010 hPa | 0 mm | - | - | - |
| 1777890734 | 16.11° C | 63% | 1010 hPa | 0 mm | - | - | - |
| 1777890194 | 16.11° C | 61% | 1009.9 hPa | 0 mm | - | - | - |
| 1777889655 | 16.67° C | 63% | 1010 hPa | 0 mm | - | - | - |
| 1777889115 | 16.67° C | 65% | 1010 hPa | 0 mm | - | - | - |
| 1777888575 | 16.11° C | 65% | 1009.8 hPa | 0 mm | - | - | - |
| 1777888034 | 15.56° C | 67% | 1009.7 hPa | 0 mm | - | - | - |
| 1777887494 | 15.56° C | 70% | 1009.7 hPa | 0 mm | - | - | - |
| 1777886955 | 14.44° C | 70% | 1009.7 hPa | 0 mm | - | - | - |
| 1777886414 | 14.44° C | 70% | 1009.8 hPa | 0 mm | - | - | - |
| 1777885875 | 14.44° C | 70% | 1009.9 hPa | 0 mm | - | - | - |
| 1777885335 | 15° C | 68% | 1009.8 hPa | 0 mm | - | - | - |
* Rain latest hour (hover to see other rain measurements)
** Current wind speed in m/s (hover to see current wind gust speed)